Weather History for PHHI - February, 2013

Change the Weather History Date:

Thursday, February 28, 2013

  Actual Average Record
Temperature  
Mean Temperature 69 °F -  
Max Temperature 74 °F 74 °F 80 °F (1997)
Min Temperature 64 °F 61 °F 50 °F (1998)
Cooling Degree Days 4    
Growing Degree Days 19 (Base 50)    
Moisture  
Dew Point 57 °F    
Average Humidity 67    
Maximum Humidity 78    
Minimum Humidity 51    
Precipitation  
Precipitation 0.00 in - - ()
Sea Level Pressure  
Sea Level Pressure 30.14 in    
Wind  
Wind Speed 8 mph (NE)    
Max Wind Speed 20 mph    
Max Gust Speed 26 mph    
Visibility 10 miles    
Events      
Averages and records for this station are not official NWS values.
T = Trace of Precipitation, MM = Missing Value Source: NWS Daily Summary

Daily Weather History Graph

Daily Weather History Graph

Search for Another Location

Airport or City:

Trip Planner

Search our weather history database for the weather conditions in past years. The results will help you decide how hot, cold, wet, or windy it might be!

Date:

Astronomy

Feb. 28, 2013 Rise Set
Actual Time 6:53 AM HST 6:36 PM HST
Civil Twilight 6:30 AM HST 6:58 PM HST
Nautical Twilight 6:05 AM HST 7:24 PM HST
Astronomical Twilight 5:39 AM HST 7:50 PM HST
Moon 9:40 PM HST 8:39 AM HST
Length of Visible Light 12h 27m
Length of Day
11h 42m
Waning Gibbous, 89% of the Moon is Illuminated
Feb 28
Waning Gibbous
Mar 4
Last Quarter
Mar 11
New
Mar 19
First Quarter
Mar 26
Full

Hourly Weather History & Observations

Time (HST) Temp. Dew Point Humidity Pressure Visibility Wind Dir Wind Speed Gust Speed Precip Events Conditions
12:55 AM 66.6 °F 55.9 °F 69% 30.13 in 10.0 mi Calm Calm - N/A   Mostly Cloudy
1:55 AM 66.7 °F 57.4 °F 72% 30.11 in 10.0 mi East 10.4 mph - N/A   Mostly Cloudy
2:55 AM 66.0 °F 56.7 °F 72% 30.11 in 10.0 mi East 4.6 mph - N/A   Scattered Clouds
3:55 AM 64.8 °F 54.5 °F 69% 30.11 in 10.0 mi Calm Calm - N/A   Partly Cloudy
4:55 AM 66.2 °F 54.7 °F 66% 30.11 in 10.0 mi East 8.1 mph - N/A   Scattered Clouds
5:55 AM 65.5 °F 56.1 °F 72% 30.12 in 10.0 mi NNW 3.5 mph - N/A   Scattered Clouds
6:55 AM 66.9 °F 58.1 °F 73% 30.14 in 10.0 mi NE 10.4 mph - N/A   Mostly Cloudy
7:08 AM 66.2 °F 57.2 °F 73% 30.14 in 10.0 mi NNE 8.1 mph - N/A   Light Drizzle
7:28 AM 66.2 °F 59.0 °F 78% 30.15 in 10.0 mi NNE 9.2 mph - N/A   Scattered Clouds
7:30 AM 66.2 °F 59.0 °F 78% 30.15 in 10.0 mi NNE 8.1 mph - N/A   Light Drizzle
7:40 AM 66.2 °F 59.0 °F 78% 30.15 in 10.0 mi NE 12.7 mph - N/A   Mostly Cloudy
7:55 AM 66.9 °F 58.8 °F 75% 30.16 in 10.0 mi NE 9.2 mph - 0.00 in   Mostly Cloudy
8:55 AM 68.7 °F 57.6 °F 67% 30.18 in 10.0 mi Variable 4.6 mph - N/A   Overcast
9:55 AM 72.0 °F 54.5 °F 54% 30.17 in 10.0 mi East 18.4 mph 23.0 mph N/A   Partly Cloudy
10:55 AM 71.8 °F 58.1 °F 62% 30.17 in 10.0 mi East 19.6 mph 23.0 mph N/A   Mostly Cloudy
11:55 AM 73.6 °F 58.5 °F 59% 30.16 in 10.0 mi ENE 12.7 mph - N/A   Mostly Cloudy
12:55 PM 74.5 °F 55.4 °F 51% 30.14 in 10.0 mi East 18.4 mph 26.5 mph N/A   Scattered Clouds
1:55 PM 73.9 °F 56.5 °F 54% 30.12 in 10.0 mi NE 13.8 mph - N/A   Overcast
2:55 PM 73.6 °F 56.7 °F 55% 30.11 in 10.0 mi ENE 9.2 mph - N/A   Mostly Cloudy
3:55 PM 73.4 °F 58.6 °F 60% 30.10 in 10.0 mi NE 16.1 mph 20.7 mph N/A   Mostly Cloudy
4:55 PM 70.9 °F 57.9 °F 63% 30.12 in 10.0 mi NE 10.4 mph - N/A   Mostly Cloudy
5:55 PM 69.8 °F 56.8 °F 63% 30.13 in 10.0 mi NE 4.6 mph - N/A   Mostly Cloudy
6:55 PM 68.5 °F 57.7 °F 68% 30.15 in 10.0 mi North 8.1 mph - N/A   Scattered Clouds
7:55 PM 67.8 °F 57.0 °F 68% 30.17 in 10.0 mi NNE 6.9 mph - N/A   Mostly Cloudy
8:55 PM 68.0 °F 58.1 °F 71% 30.19 in 10.0 mi NNE 9.2 mph - N/A   Mostly Cloudy
9:55 PM 67.8 °F 57.6 °F 70% 30.19 in 10.0 mi NNE 8.1 mph - N/A   Mostly Cloudy
10:55 PM 67.1 °F 56.7 °F 69% 30.18 in 10.0 mi NE 11.5 mph - N/A   Scattered Clouds
11:55 PM 67.3 °F 56.8 °F 69% 30.18 in 10.0 mi NE 16.1 mph - N/A   Mostly Cloudy